Satellite: NO-44
Catalog number: 26931
Epoch time:      10056.19675298
Element set:     395
Inclination:      067.0524 deg
RA of node:       132.5107 deg
Eccentricity:    0.0006605
Arg of perigee:   264.0099 deg
Mean anomaly:     096.0233 deg
Mean motion:   14.29585338 rev/day
Decay rate:       1.09e-06 rev/day^2
Epoch rev:           43874
Checksum:              312

Satellite: SO-50
Catalog number: 27607
Epoch time:      10056.28189856
Element set:     111
Inclination:      064.5610 deg
RA of node:       336.4075 deg
Eccentricity:    0.0037997
Arg of perigee:   128.5867 deg
Mean anomaly:     231.8656 deg
Mean motion:   14.71503656 rev/day
Decay rate:        7.5e-07 rev/day^2
Epoch rev:           38591
Checksum:              329

Satellite: CO-55
Catalog number: 27844
Epoch time:      10056.53792619
Element set:     788
Inclination:      098.7135 deg
RA of node:       067.1063 deg
Eccentricity:    0.0010355
Arg of perigee:   129.4214 deg
Mean anomaly:     230.7876 deg
Mean motion:   14.20686851 rev/day
Decay rate:        7.6e-07 rev/day^2
Epoch rev:           34523
Checksum:              320

Satellite: CO-57
Catalog number: 27848
Epoch time:      10055.70603994
Element set:     739
Inclination:      098.7187 deg
RA of node:       065.3642 deg
Eccentricity:    0.0010457
Arg of perigee:   135.4247 deg
Mean anomaly:     224.7767 deg
Mean motion:   14.20481905 rev/day
Decay rate:        5.1e-07 rev/day^2
Epoch rev:           34507
Checksum:              323

Satellite: AO-51
Catalog number: 28375
Epoch time:      10056.53910084
Element set:     612
Inclination:      098.0570 deg
RA of node:       056.4198 deg
Eccentricity:    0.0085004
Arg of perigee:   075.8604 deg
Mean anomaly:     285.2021 deg
Mean motion:   14.40670688 rev/day
Decay rate:        3.2e-07 rev/day^2
Epoch rev:           29743
Checksum:              296

Satellite: GENESAT1
Catalog number: 29655
Epoch time:      10056.33494866
Element set:     958
Inclination:      040.0201 deg
RA of node:       028.5989 deg
Eccentricity:    0.0006369
Arg of perigee:   244.2394 deg
Mean anomaly:     115.7766 deg
Mean motion:   15.75420849 rev/day
Decay rate:     5.0583e-04 rev/day^2
Epoch rev:           18225
Checksum:              329

Satellite: CP3
Catalog number: 31129
Epoch time:      10056.11542037
Element set:     513
Inclination:      097.9539 deg
RA of node:       101.6085 deg
Eccentricity:    0.0101597
Arg of perigee:   221.1053 deg
Mean anomaly:     138.2494 deg
Mean motion:   14.52213717 rev/day
Decay rate:        9.4e-07 rev/day^2
Epoch rev:           15159
Checksum:              271

Satellite: CO-65
Catalog number: 32785
Epoch time:      10055.71988635
Element set:     612
Inclination:      097.9101 deg
RA of node:       122.1393 deg
Eccentricity:    0.0013946
Arg of perigee:   292.8132 deg
Mean anomaly:     067.1633 deg
Mean motion:   14.81590646 rev/day
Decay rate:        1.0e-07 rev/day^2
Epoch rev:            9883
Checksum:              311

Satellite: KKS-1
Catalog number: 33493
Epoch time:      10056.77143461
Element set:     243
Inclination:      098.0713 deg
RA of node:       175.4115 deg
Eccentricity:    0.0020942
Arg of perigee:   139.0434 deg
Mean anomaly:     221.2359 deg
Mean motion:   14.80870584 rev/day
Decay rate:       7.29e-06 rev/day^2
Epoch rev:            5899
Checksum:              298

Satellite: SOHLA-1
Catalog number: 33496
Epoch time:      10056.21779338
Element set:      34
Inclination:      098.0470 deg
RA of node:       166.8136 deg
Eccentricity:    0.0006286
Arg of perigee:   190.1212 deg
Mean anomaly:     169.9875 deg
Mean motion:   14.69472200 rev/day
Decay rate:        9.8e-07 rev/day^2
Epoch rev:            5843
Checksum:              310

/EX
SB KEPS @ AMSAT  $ORB10056.W
Orbital Elements  10056.WEATHER

HR AMSAT ORBITAL ELEMENTS FOR WEATHER SATELLITES
FROM WA5QGD FORT WORTH,TX February 25, 2010
Send Subscribe/unsubscribe to KEPS at http://www.amsat.org/mailman/listinfo/kep
BID: ORB10056.W
TO ALL RADIO AMATEURS BT

Satellite: NOAA-10
Catalog number: 16969
Epoch time:      10056.48909207
Element set:     970
Inclination:      098.6704 deg
RA of node:       086.4459 deg
Eccentricity:    0.0012566
Arg of perigee:   173.9698 deg
Mean anomaly:     186.1653 deg
Mean motion:   14.27407179 rev/day
Decay rate:       -5.1e-07 rev/day^2
Epoch rev:           21964
Checksum:              344

Satellite: NOAA-11
Catalog number: 19531
Epoch time:      10056.29873256
Element set:     985
Inclination:      098.7696 deg
RA of node:       147.2276 deg
Eccentricity:    0.0012204
Arg of perigee:   105.4889 deg
Mean anomaly:     254.7647 deg
Mean motion:   14.14916950 rev/day
Decay rate:       2.44e-06 rev/day^2
Epoch rev:           10531
Checksum:              320

Satellite: NOAA-12
Catalog number: 21263
Epoch time:      10056.40735022
Element set:     466
Inclination:      098.7674 deg
RA of node:       069.5586 deg
Eccentricity:    0.0013496
Arg of perigee:   126.4480 deg
Mean anomaly:     233.8434 deg
Mean motion:   14.25618476 rev/day
Decay rate:        6.4e-07 rev/day^2
Epoch rev:           97647
Checksum:              321

